Weather observations for the past three days for
Kingsville, Naval Air Station
Metric (Imperial)
Date Time (cdt) Wind (kph) Vis. (km) Weather Sky Cond. Temperature (ºC) Relative Humidity Wind Chill (°C) Heat Index (°C) Pressure Precipitation (cm)
Air Dwpt 6 hour altimeter (cm) sea level (mb) 1 hr 3 hr 6 hr
Max. Min.
15 06:56 E 6 16.09 Mostly Cloudy FEW018 SCT024 BKN250 26.7 25 27.8 26.1 90% 30 76.33 1017.3
15 05:56 E 6 16.09 Partly Cloudy FEW020 SCT028 26.7 25 90% 30 76.3 1017.0
15 04:56 Calm 16.09 Mostly Cloudy BKN021 26.7 25 90% 30 76.3 1016.8
15 03:56 SE 7 16.09 Fair CLR 26.7 25 90% 30 76.28 1016.4
15 02:56 S 9 16.09 Fair CLR 27.2 25 88% 31 76.28 1016.5
15 01:56 S 15 16.09 Fair CLR 27.2 25 88% 31 76.3 1017.0
15 00:56 S 13 16.09 Fair CLR 27.8 25 31.7 27.2 85% 32 76.35 1017.4
14 23:56 S 13 16.09 Fair CLR 27.8 25 85% 32 76.38 1017.9
14 22:56 S 13 16.09 Fair CLR 28.9 25 80% 34 76.35 1017.6
14 21:56 SE 9 16.09 Fair CLR 28.9 25.6 82% 35 76.33 1017.1
14 20:56 SE 15 16.09 Fair CLR 30 25 75% 36 76.33 1017.1
14 19:56 SE 20 16.09 Mostly Cloudy FEW050 SCT160 BKN250 31.1 25.6 73% 39 76.3 1017.0
14 18:56 SE 22 G 33 16.09 Mostly Cloudy FEW045 SCT150 BKN250 31.7 25.6 35 31.7 70% 40 76.33 1017.1
14 17:56 SE 19 G 33 16.09 Thunderstorm SCT037CB BKN055 BKN150 BKN250 32.2 23.9 62% 38 76.35 1017.6
14 17:51 SE 19 G 33 16.09 Thunderstorm BKN027CB BKN055 BKN150 OVC250 32 24 63% 38 76.35 0.0
14 16:56 SE 22 16.09 Mostly Cloudy FEW029 SCT055 SCT150 BKN250 33.3 25 62% 41 76.35 1017.6
14 15:56 SE 24 G 37 16.09 Partly Cloudy FEW036 SCT065 SCT250 35 25 56% 43 76.35 1017.6
14 14:56 SE 15 G 31 16.09 Mostly Cloudy SCT042 SCT070 BKN250 35 25.6 58% 44 76.4 1018.4
14 13:56 SE 11 16.09 Partly Cloudy SCT040 SCT050 35 25.6 58% 44 76.45 1018.9
14 12:56 S 9 16.09 Partly Cloudy SCT036 SCT042 SCT050 33.9 25.6 33.9 25.6 62% 43 76.48 1019.3
14 11:56 SE 17 16.09 A Few Clouds FEW032 33.3 25.6 64% 42 76.5 1019.5
14 10:56 S 13 16.09 Partly Cloudy FEW024 SCT032 32.2 25.6 68% 40 76.53 1020.0
14 09:56 S 13 16.09 Partly Cloudy SCT017 30 25.6 77% 37 76.56 1020.1
14 08:56 S 7 16.09 Fair CLR 28.9 26.1 85% 36 76.56 1020.2
14 07:56 Calm 12.87 Fair CLR 27.2 25.6 91% 31 76.53 1019.9
14 06:56 E 6 9.66 Fog/Mist CLR 25.6 23.9 27.8 25 90% 27 76.48 1019.1
14 05:56 Calm 11.27 Fair CLR 25.6 23.9 90% 27 76.43 1018.7
14 04:56 Calm 14.48 Fair CLR 25.6 24.4 93% 27 76.43 1018.6
14 03:56 Calm 16.09 Fair CLR 26.1 25 94% 28 76.43 1018.4
14 02:56 S 7 16.09 Fair CLR 26.7 25 90% 30 76.48 1019.2
14 01:56 S 9 16.09 A Few Clouds FEW020 26.7 25 90% 30 76.53 1019.9
14 00:56 S 9 16.09 Fair CLR 27.8 25.6 32.2 27.8 88% 33 76.56 1020.3
13 23:56 S 11 16.09 Fair CLR 28.3 26.1 88% 34 76.56 1020.4
13 22:56 SE 9 16.09 Fair CLR 28.3 25.6 85% 34 76.53 1019.8
13 21:56 SE 11 16.09 Fair CLR 28.3 25.6 85% 34 76.5 1019.5
13 20:56 SE 11 16.09 Fair CLR 28.9 25.6 82% 35 76.5 1019.5
13 19:56 SE 17 16.09 Fair CLR 30.6 25.6 75% 38 76.48 1019.2
13 18:56 SE 19 16.09 A Few Clouds FEW026 32.2 25.6 33.9 30.6 68% 40 76.43 1018.6
13 17:56 SE 19 16.09 Fair CLR 32.8 25.6 66% 41 76.43 1018.5
13 16:56 SE 24 16.09 Fair CLR 33.3 26.1 66% 43 76.43 1018.5
13 15:56 S 22 16.09 Partly Cloudy SCT031 32.2 26.1 70% 41 76.45 1018.9
13 14:56 SE 20 G 37 16.09 A Few Clouds FEW031 FEW042 33.3 26.1 66% 43 76.48 1019.1
13 13:56 S 15 16.09 Fair CLR 33.9 25.6 62% 43 76.5 1019.7
13 12:56 SE 13 16.09 A Few Clouds FEW032 32.8 25.6 33.3 26.7 66% 41 76.56 1020.4
13 11:56 SE 15 16.09 Fair CLR 32.8 25.6 66% 41 76.58 1020.6
13 10:56 E 13 16.09 Mostly Cloudy BKN018 BKN025 32.2 27.2 75% 43 76.61 1020.8
13 09:56 SE 11 16.09 A Few Clouds FEW014 30 26.7 83% 38 76.61 1020.9
13 08:56 E 6 16.09 Fair CLR 28.9 26.7 88% 36 76.58 1020.7
13 07:56 NE 7 14.48 Fair CLR 27.8 26.1 90% 33 76.53 1020.0
13 06:56 E 6 12.87 Fair CLR 27.2 25.6 27.8 27.2 91% 31 76.48 1019.1
13 05:56 E 6 16.09 Fair CLR 27.2 25.6 91% 31 76.43 1018.7
13 04:56 N 6 14.48 Fair CLR 27.2 25.6 91% 31 76.38 1018.0
13 03:56 Calm 16.09 Fair CLR 27.8 26.1 90% 33 76.35 1017.5
13 02:56 S 6 16.09 Fair CLR 27.8 25.6 88% 33 76.38 1017.8
13 01:56 W 7 16.09 Light Rain FEW100 27.8 26.1 90% 33 76.4 1018.1
13 00:56 S 6 16.09 A Few Clouds FEW120 27.2 25.6 31.1 26.1 91% 31 76.43 1018.5
12 23:56 S 6 16.09 Light Rain CLR 26.7 25 90% 30 76.43 1018.7
12 22:56 SE 11 16.09 Light Rain FEW055 SCT090 SCT120 26.7 23.3 82% 29 76.4 1018.3
12 21:56 SE 15 16.09 Light Rain CLR 27.2 22.8 77% 30 76.4 1018.1
12 20:56 SE 13 16.09 A Few Clouds FEW042 28.9 24.4 77% 34 76.4 1018.2
12 19:56 SE 13 16.09 Fair CLR 30 25.6 77% 37 76.33 1017.3
12 18:56 SE 17 16.09 Fair CLR 31.1 25 32.8 29.4 70% 38 76.33 1017.2
12 17:56 SE 20 16.09 Mostly Cloudy FEW033 SCT055 SCT120 BKN250 31.1 25 70% 38 76.28 1016.4
12 16:56 SE 17 16.09 Mostly Cloudy FEW025 SCT044 BKN110 BKN250 30.6 25.6 75% 38 76.25 1016.3
12 15:56 SE 17 16.09 Mostly Cloudy SCT050 SCT090 BKN150 BKN250 31.1 23.3 63% 36 76.28 1016.7
12 14:56 S 19 16.09 Mostly Cloudy SCT034 SCT047 BKN150 BKN250 32.2 25 66% 39 76.3 1017.0
12 13:56 S 19 16.09 Mostly Cloudy SCT026 BKN150 BKN250 32.8 25.6 66% 41 76.33 1017.3
12 12:56 S 9 16.09 Mostly Cloudy SCT027 SCT035 BKN110 BKN250 31.1 25.6 31.1 25.6 73% 39 76.38 1017.8
12 11:56 Vrbl 7 16.09 Mostly Cloudy SCT020 BKN150 30.6 25.6 75% 38 76.4 1018.1
12 10:56 Calm 16.09 Mostly Cloudy FEW015 BKN150 29.4 25.6 80% 36 76.38 1018.0
12 09:56 E 9 16.09 Mostly Cloudy FEW015 BKN150 28.3 25 82% 33 76.4 1018.1
12 08:56 E 13 16.09 Mostly Cloudy FEW007 FEW020 BKN250 26.7 25 90% 30 76.38 1017.8
12 07:56 E 7 6.44 Fog/Mist FEW006 SCT019 BKN250 26.1 25 94% 28 76.3 1017.0
Date Time (cdt) Wind (kph) Vis. (km) Weather Sky Cond. Air Dwpt Max. Min. Relative Humidity Wind Chill (°C) Heat Index (°C) altimeter (cm) sea level (mb) 1 hr 3 hr 6 hr
6 hour
Temperature (ºC) Pressure Precipitation (cm)